Погода в Ломбок-Сенггиги

Индонезия     8°29′18″S   116°02′30″E
темп.,
°C
ветер,
м/с
пор.,
м/с
влажн.,
%
обл.,
%
осадки,
мм/ч
давл.,
гПа
погр.,
м
27 ноября, сб
сб2723:00+29ю457399 0.0 1009609
02:00+28ююз347564 0.0 1007654
05:00+28ююз557889 0.1 1008644
08:00+28ююз557717 0.3 1009745
11:00+28юз5579100 0.4 1008480
14:00+28ююз4578100 6.4 1006228
17:00+27юв5581100 6.9 1006295
20:00+27юв5680100 10.3 1008265
28 ноября, вс
вс2823:00+27ююв4479100 0.2 1009314
02:00+27ююв4580100 0.6 1007365
05:00+27ю4581100 0.1 1007489
08:00+27ю458197 0.1 1009561
11:00+27ююз458099 2.1 1009475
14:00+27ю3478100 4.1 1007339
17:00+27ю3377100 3.8 1007240
20:00+25юз1187100 9.4 1009130
29 ноября, пн
пн2923:00+25ююз4487100 2.6 1010431
02:00+26ю5685100 3.5 1007476
05:00+26ю5684100 2.3 1007460
08:00+26вюв3381100 6.3 1009367
11:00+25ссв2284100 2.6 1010364
14:00+25ююв2285100 3.4 1008389
17:00+26юв2374100 0.0 1006383
20:00+26с4480100 0.0 1008657
30 ноября, вт
вт3023:00+27з3375100 0.6 1009684
02:00+26ююз4481100 2.3 1007360
05:00+26ююв3380100 2.6 1007213
08:00+27юв2175100 3.9 1009269
11:00+27ююз2275100 0.7 1009186
14:00+27зсз2169100 1.1 1007312
17:00+28с2167100 0.1 1006378
20:00+28с1168100 0.1 1008399
1 декабря, ср
ср123:00+27ссв4376100 0.5 1009513
02:00+27всв3375100 3.5 1007263
05:00+27в3376100 2.6 1007307
08:00+26св3383100 5.6 1010302
11:00+28ссв6777100 2.3 1009672
14:00+28ссв11117697 2.8 1006759
17:00+28ссв91078100 0.4 1007710
20:00+28ссв8878100 0.4 1009695